Location: Wayah Bald
(35.1806°N, 83.5603°W)
Time: 20:15:09
(UTC-04:00)

Meteor 1-27 Rocket - Visible Passes

Search period start: 25 October 2014 00:00
Search period end: 03 November 2014 23:00
Orbit: 830 x 911 km, 81.3° (Epoch: 24 October)

Date Brightness Start Highest point End Pass type
(mag) Time Alt. Az. Time Alt. Az. Time Alt. Az.
01 Nov 6.4 07:27:28 10° NNE 07:30:47 16° ENE 07:34:05 10° ESE visible
02 Nov 6.4 06:21:16 10° NNE 06:24:42 17° ENE 06:28:07 10° ESE visible
03 Nov 6.3 06:15:04 10° NNE 06:18:38 17° ENE 06:22:10 10° ESE visible
